Weather in Pakpattan

Pakistan     30°20′56″N   73°23′12″E
temp.,
°C
wind,
m/s
gust,
m/s
humid.,
%
clouds,
%
prec.,
mm/h
press.,
hPa
HPBL,
m
4 march, thu
thu423:00+20s23180 0.0 101123
02:00+19ene22180 0.0 101123
05:00+17ne23200 0.0 101023
08:00+20e23170 0.0 1012110
11:00+30e3490 0.0 1012755
14:00+35sse1370 0.0 10093485
17:00+33nnw3280 0.0 10082429
20:00+23nne34150 0.0 101028
5 march, fri
fri523:00+19n22190 0.0 101223
02:00+18nne23210 0.0 101123
05:00+15nnw23250 0.0 101123
08:00+20nne22200 0.0 101392
11:00+31nnw34110 0.0 10131242
14:00+35nw5660 0.0 10103102
17:00+33nw5660 0.0 10082895
20:00+23nnw59120 0.0 1010127
6 march, sat
sat623:00+19nne45160 0.0 101186
02:00+17ene23210 0.0 101123
05:00+16e23220 0.0 101023
08:00+21ese22150 0.0 101297
11:00+32s3470 0.0 10121156
14:00+35sw3560 0.0 10082232
17:00+35wsw2570 0.0 10052963
20:00+25e45120 0.0 100635
7 march, sun
sun723:00+23ene5101347 0.0 1007212
02:00+22e581499 0.0 1006152
05:00+18ene6113095 0.3 1004168
08:00+20ese693284 0.5 1006218
11:00+30ese331971 0.8 1006848
14:00+36s7717100 0.2 10022617
17:00+34wsw661495 0.2 10012022
20:00+22n483718 0.0 1005149
8 march, mon
mon823:00+17ene236410 0.0 100725
02:00+15nne45750 0.0 100769
05:00+13nne45870 0.0 100886
08:00+17ne46660 0.0 1012200
11:00+28n33260 0.0 1012779
14:00+34nnw24110 0.0 10092926
17:00+33wnw2290 0.0 10083374
20:00+23n34170 0.0 101025